When you browse on this site, cookies collect data to enhance your experience and personalize the content and advertising you see.
Visit our Privacy Policy to learn more. By continuing to use the site, you agree to this use of cookies and data.
  • In Hungary
  • List of Countries
  • For 7 days
  • Water Temperature
  • Satellite Maps
  • Weather Map
  • News
  • Weather Widgets
  • user-avatar
    Login

    Hourly Weather Szydłowiec

    Today, 20 January, Sunday

    Time Temperature Precipitation Wind Pressure Humidity
    00:00 -3°C° 0 mm 1 mps 744 mmHg 82%
    01:00 -3°C° 0 mm 1 mps 744 mmHg 84%
    02:00 -3°C° 0 mm 1 mps 744 mmHg 84%
    03:00 -3°C° 0 mm 1 mps 744 mmHg 84%
    04:00 -4°C° 0 mm 1 mps 744 mmHg 84%
    05:00 -4°C° 0 mm 1 mps 743 mmHg 84%
    06:00 -4°C° 0 mm 1 mps 743 mmHg 84%
    07:00 -4°C° 0 mm 1 mps 743 mmHg 83%
    08:00 -3°C° 0 mm 1 mps 743 mmHg 79%
    09:00 -3°C° 0 mm 1 mps 743 mmHg 75%
    10:00 -2°C° 0 mm 1 mps 743 mmHg 72%
    11:00 -2°C° 0 mm 1 mps 743 mmHg 69%
    12:00 -2°C° 0 mm 0 mps 743 mmHg 65%
    13:00 -1°C° 0 mm 0 mps 743 mmHg 62%
    14:00 -2°C° 0 mm 0 mps 743 mmHg 66%
    15:00 -2°C° 0 mm 0 mps 743 mmHg 69%
    16:00 -2°C° 0 mm 1 mps 743 mmHg 73%
    17:00 -2°C° 0 mm 1 mps 743 mmHg 75%
    18:00 -3°C° 0 mm 1 mps 743 mmHg 76%
    19:00 -3°C° 0 mm 1 mps 743 mmHg 78%
    20:00 -3°C° 0 mm 1 mps 744 mmHg 78%
    21:00 -3°C° 0 mm 1 mps 744 mmHg 78%
    22:00 -3°C° 0 mm 1 mps 744 mmHg 78%
    23:00 -3°C° 0 mm 1 mps 745 mmHg 78%

    Tomorrow, 21 January, Monday

    Time Temperature Precipitation Wind Pressure Humidity
    00:00 -6°C° 0 mm 2 mps 745 mmHg 78%
    01:00 -6°C° 0 mm 2 mps 745 mmHg 78%
    02:00 -6°C° 0 mm 2 mps 745 mmHg 78%
    03:00 -6°C° 0 mm 2 mps 745 mmHg 78%
    04:00 -6°C° 0 mm 2 mps 745 mmHg 79%
    05:00 -6°C° 0 mm 2 mps 745 mmHg 80%
    06:00 -6°C° 0 mm 2 mps 746 mmHg 81%
    07:00 -6°C° 0 mm 2 mps 746 mmHg 82%
    08:00 -5°C° 0 mm 2 mps 746 mmHg 80%
    09:00 -5°C° 0 mm 2 mps 746 mmHg 78%
    10:00 -4°C° 0 mm 2 mps 747 mmHg 76%
    11:00 -3°C° 0 mm 2 mps 746 mmHg 75%
    12:00 -2°C° 0 mm 2 mps 746 mmHg 74%
    13:00 -2°C° 0 mm 2 mps 746 mmHg 73%
    14:00 0°C° 0 mm 1 mps 746 mmHg 76%
    15:00 -1°C° 0 mm 1 mps 746 mmHg 79%
    16:00 -1°C° 0 mm 1 mps 746 mmHg 82%
    17:00 -2°C° 0 mm 1 mps 746 mmHg 83%
    18:00 -2°C° 0 mm 1 mps 745 mmHg 83%
    19:00 -2°C° 0 mm 1 mps 745 mmHg 84%
    20:00 -2°C° 0 mm 1 mps 745 mmHg 84%
    21:00 -5°C° 0 mm 2 mps 745 mmHg 83%
    22:00 -5°C° 0 mm 2 mps 745 mmHg 83%
    23:00 -5°C° 0 mm 2 mps 745 mmHg 82%

    Day after tomorrow, 22 January, Tuesday

    Time Temperature Precipitation Wind Pressure Humidity
    00:00 -5°C° 0 mm 2 mps 745 mmHg 82%
    01:00 -5°C° 0 mm 2 mps 744 mmHg 81%
    02:00 -5°C° 0 mm 2 mps 744 mmHg 80%
    03:00 -5°C° 0 mm 2 mps 744 mmHg 79%
    04:00 -5°C° 0 mm 2 mps 743 mmHg 78%
    05:00 -6°C° 0 mm 2 mps 743 mmHg 78%
    06:00 -6°C° 0 mm 2 mps 743 mmHg 79%
    07:00 -6°C° 0 mm 2 mps 742 mmHg 79%
    08:00 -5°C° 0 mm 2 mps 742 mmHg 77%
    09:00 -5°C° 0 mm 2 mps 742 mmHg 75%
    10:00 -4°C° 0 mm 2 mps 742 mmHg 73%
    11:00 -4°C° 0 mm 2 mps 741 mmHg 71%
    12:00 -3°C° 0 mm 2 mps 741 mmHg 69%
    13:00 -2°C° 0 mm 2 mps 740 mmHg 67%
    14:00 -3°C° 0 mm 2 mps 740 mmHg 71%
    15:00 -4°C° 0 mm 2 mps 739 mmHg 75%
    16:00 -4°C° 0 mm 2 mps 739 mmHg 79%
    17:00 -4°C° 0 mm 2 mps 739 mmHg 81%
    18:00 -6°C° 0 mm 3 mps 738 mmHg 82%
    19:00 -6°C° 0 mm 3 mps 738 mmHg 84%
    20:00 -6°C° 0 mm 3 mps 738 mmHg 86%
    21:00 -7°C° 0 mm 3 mps 738 mmHg 88%
    22:00 -7°C° 0 mm 3 mps 737 mmHg 89%
    23:00 -7°C° 0 mm 3 mps 737 mmHg 90%

    23 January, Wednesday

    Time Temperature Precipitation Wind Pressure Humidity
    00:00 -7°C° 0 mm 3 mps 736 mmHg 91%
    01:00 -9°C° 0 mm 4 mps 736 mmHg 92%
    02:00 -9°C° 0 mm 4 mps 736 mmHg 92%
    03:00 -9°C° 0 mm 4 mps 735 mmHg 91%
    04:00 -9°C° 0 mm 4 mps 735 mmHg 90%
    05:00 -10°C° 0 mm 5 mps 735 mmHg 90%
    06:00 -10°C° 0 mm 5 mps 735 mmHg 89%
    07:00 -10°C° 0 mm 5 mps 734 mmHg 88%
    08:00 -8°C° 0 mm 5 mps 734 mmHg 87%
    09:00 -8°C° 0 mm 5 mps 734 mmHg 86%
    10:00 -7°C° 0 mm 5 mps 734 mmHg 86%
    11:00 -6°C° 0 mm 5 mps 734 mmHg 85%
    12:00 -5°C° 0 mm 5 mps 734 mmHg 85%
    13:00 -4°C° 0 mm 5 mps 733 mmHg 84%
    14:00 -4°C° 0 mm 5 mps 733 mmHg 85%
    15:00 -4°C° 0 mm 5 mps 733 mmHg 86%
    16:00 -4°C° 0 mm 5 mps 733 mmHg 87%
    17:00 -4°C° 0 mm 5 mps 733 mmHg 89%
    18:00 -3°C° 0 mm 4 mps 733 mmHg 90%
    19:00 -3°C° 0 mm 4 mps 733 mmHg 91%
    20:00 -3°C° 0 mm 4 mps 733 mmHg 91%
    21:00 -3°C° 0 mm 4 mps 733 mmHg 92%
    22:00 -3°C° 0 mm 4 mps 733 mmHg 92%
    23:00 -2°C° 0.1 mm 3 mps 733 mmHg 93%

    24 January, Thursday

    Time Temperature Precipitation Wind Pressure Humidity
    00:00 -2°C° 0.1 mm 3 mps 733 mmHg 93%
    01:00 -2°C° 0.1 mm 3 mps 733 mmHg 93%
    02:00 -2°C° 0.1 mm 2 mps 733 mmHg 94%
    03:00 -2°C° 0.1 mm 2 mps 733 mmHg 94%
    04:00 -2°C° 0.1 mm 2 mps 733 mmHg 95%
    05:00 0°C° 0.1 mm 1 mps 733 mmHg 95%
    06:00 0°C° 0.1 mm 1 mps 733 mmHg 96%
    07:00 0°C° 0.1 mm 1 mps 734 mmHg 97%
    08:00 0°C° 0.1 mm 1 mps 734 mmHg 96%
    09:00 +1°C° 0.1 mm 1 mps 734 mmHg 95%
    10:00 +1°C° 0.1 mm 1 mps 734 mmHg 94%
    11:00 +1°C° 0.1 mm 1 mps 734 mmHg 94%
    12:00 +1°C° 0.1 mm 1 mps 734 mmHg 94%
    13:00 +2°C° 0.1 mm 1 mps 734 mmHg 94%
    14:00 +1°C° 0.1 mm 1 mps 734 mmHg 95%
    15:00 +1°C° 0.1 mm 1 mps 735 mmHg 96%
    16:00 +1°C° 0.1 mm 1 mps 735 mmHg 96%
    17:00 +1°C° 0.2 mm 1 mps 735 mmHg 97%
    18:00 +1°C° 0.2 mm 1 mps 735 mmHg 97%
    19:00 +1°C° 0.2 mm 1 mps 736 mmHg 97%
    20:00 +1°C° 0.1 mm 1 mps 736 mmHg 97%
    21:00 -2°C° 0.1 mm 2 mps 736 mmHg 97%
    22:00 -2°C° 0.1 mm 2 mps 736 mmHg 97%
    23:00 -2°C° 0.2 mm 2 mps 737 mmHg 97%

    25 January, Friday

    Time Temperature Precipitation Wind Pressure Humidity
    00:00 -2°C° 0.2 mm 2 mps 737 mmHg 96%
    01:00 -2°C° 0.2 mm 2 mps 737 mmHg 96%
    02:00 -2°C° 0 mm 2 mps 737 mmHg 96%
    03:00 -2°C° 0 mm 3 mps 737 mmHg 96%
    04:00 -2°C° 0 mm 3 mps 737 mmHg 95%
    05:00 -2°C° 0 mm 3 mps 738 mmHg 95%
    06:00 -2°C° 0 mm 3 mps 738 mmHg 95%
    07:00 -2°C° 0 mm 2 mps 738 mmHg 96%
    08:00 -2°C° 0 mm 2 mps 738 mmHg 95%
    09:00 -1°C° 0 mm 2 mps 739 mmHg 94%
    10:00 -1°C° 0 mm 2 mps 739 mmHg 93%
    11:00 -1°C° 0.1 mm 3 mps 739 mmHg 93%
    12:00 -1°C° 0.1 mm 3 mps 740 mmHg 93%
    13:00 -1°C° 0.1 mm 3 mps 740 mmHg 93%
    14:00 -1°C° 0.1 mm 3 mps 740 mmHg 93%
    15:00 -1°C° 0.1 mm 3 mps 740 mmHg 93%
    16:00 -1°C° 0.1 mm 3 mps 740 mmHg 93%
    17:00 -1°C° 0 mm 3 mps 741 mmHg 94%
    18:00 -2°C° 0 mm 3 mps 741 mmHg 94%
    19:00 -2°C° 0 mm 3 mps 741 mmHg 94%
    20:00 -2°C° 0 mm 3 mps 742 mmHg 94%
    21:00 -2°C° 0 mm 3 mps 742 mmHg 94%
    22:00 -2°C° 0 mm 3 mps 742 mmHg 93%
    23:00 -2°C° 0 mm 3 mps 742 mmHg 93%
    Show more